DB0SWS-6 Weather Reports


Display with metric or nautical units.
time (UTC)temp
F
wind
direction
speed
MPH
gust
MPH
rain 1hr
in
rain 24hr
in
rain mn
in
humidity
%
barometer
mb
20260506010330 51 225 0.0 0.0 0.00 0.15 0.00 99 954.0
20260506003329 51 225 0.0 0.0 0.00 0.15 0.00 99 954.2
20260505233329 52 225 0.0 0.0 0.00 0.15 0.00 99 954.5
20260505230328 52 225 0.0 0.0 0.00 0.15 0.00 99 954.8
20260505223329 52 225 0.0 0.0 0.00 0.15 0.00 99 954.8
20260505220330 52 225 0.0 0.0 0.00 0.15 0.00 99 954.8
20260505213331 52 225 0.0 0.0 0.00 0.15 0.15 99 954.7
20260505210329 53 225 0.0 0.0 0.00 0.15 0.15 99 954.7
20260505203328 53 248 0.0 1.0 0.00 0.15 0.15 99 954.5
20260505200329 53 228 0.0 1.0 0.00 0.15 0.15 99 954.4
20260505190330 53 248 0.0 0.0 0.00 0.15 0.15 99 954.2
20260505183331 54 248 0.0 0.0 0.00 0.15 0.15 99 954.0
20260505180330 54 248 1.0 2.0 0.01 0.15 0.15 97 954.0
20260505173329 55 288 1.0 2.0 0.02 0.15 0.15 96 954.0
20260505170330 54 135 0.0 0.0 0.11 0.14 0.14 98 953.9
20260505163330 56 248 0.0 0.0 0.11 0.13 0.13 97 953.5
20260505160329 59 262 2.0 3.0 0.01 0.04 0.04 87 953.7
20260505153329 60 248 3.0 6.0 0.00 0.02 0.02 86 953.5
20260505150330 61 295 1.0 3.0 0.00 0.02 0.02 85 953.3
20260505140330 59 290 2.0 3.0 0.00 0.02 0.02 91 953.9
20260505123330 58 248 0.0 0.0 0.01 0.02 0.02 92 954.8
20260505120330 58 266 1.0 3.0 0.01 0.01 0.01 92 955.1
20260505110330 59 278 2.0 5.0 0.00 0.00 0.00 84 954.9
20260505093330 60 270 3.0 6.0 0.00 0.00 0.00 80 955.2
20260505090330 59 61 1.0 2.0 0.00 0.00 0.00 81 955.6
20260505083330 59 292 0.0 0.0 0.00 0.00 0.00 83 955.7
20260505080330 56 22 0.0 0.0 0.00 0.00 0.00 86 956.1
20260505053331 53 248 0.0 0.0 0.00 0.00 0.00 88 955.9
20260505050331 52 248 0.0 0.0 0.00 0.00 0.00 89 956.2
20260505040330 52 202 0.0 0.0 0.00 0.00 0.00 87 956.2
20260505033331 51 68 0.0 0.0 0.00 0.00 0.00 87 956.1
20260505030329 51 68 0.0 0.0 0.00 0.00 0.00 88 956.6
20260505023330 52 68 0.0 0.0 0.00 0.00 0.00 87 956.7
20260505020330 53 338 0.0 0.0 0.00 0.00 0.00 87 957.1